Total_Precipitation_Accumulation
2.15 2.24 2.19 2.15 2.13 2.05 2.06 2.22 2.32 2.16 1.99 1.79 1.62 1.56 1.57 1.47 1.56 1.39 1.34 1.28 1.12 1.08 1.10 1.08 1.27 1.62 1.90 2.13 2.31 2.29 2.39 2.48 2.53 2.64 2.60 2.45 2.42 2.26
2.15 2.26 2.31 2.28 2.29 2.23 2.12 2.10 2.04 2.09 2.02 1.79 1.60 1.50 1.63 1.49 1.60 1.37 1.33 1.50 1.28 1.19 1.11 1.00 1.00 1.10 1.25 1.47 1.71 1.80 1.82 1.85 1.92 2.17 2.36 2.37 2.28 2.09
1.95 2.05 2.18 2.24 2.34 2.38 2.40 2.29 2.14 2.09 2.03 1.86 1.66 1.54 1.72 1.72 1.61 1.53 1.40 1.33 1.32 1.29 1.15 1.10 1.05 0.98 1.02 1.11 1.33 1.48 1.55 1.41 1.32 1.47 1.72 1.83 2.03 2.05
1.85 1.81 1.86 1.93 2.08 2.23 2.34 2.30 2.29 2.18 2.10 2.11 1.94 1.70 1.61 1.66 1.69 1.75 1.64 1.41 1.36 1.44 1.37 1.26 1.19 1.08 0.98 0.98 1.08 1.13 1.19 1.19 1.08 1.03 1.15 1.25 1.37 1.56
1.63 1.56 1.55 1.63 1.77 1.92 2.01 2.09 2.21 2.24 2.27 2.25 2.18 2.00 1.75 1.74 1.79 1.80 1.80 1.84 1.58 1.50 1.49 1.43 1.37 1.30 1.19 1.04 0.99 1.00 0.97 0.98 0.96 0.88 0.87 0.99 1.05 1.20
1.28 1.26 1.29 1.33 1.43 1.58 1.73 1.94 2.12 2.22 2.29 2.31 2.27 2.07 1.90 1.84 1.80 1.82 1.90 1.94 1.91 1.67 1.55 1.46 1.53 1.48 1.31 1.18 1.07 1.03 1.02 0.98 0.97 0.96 0.87 0.83 0.87 0.91
1.05 0.93 0.95 1.03 1.07 1.16 1.20 1.49 1.75 1.97 2.09 2.16 2.16 2.03 1.84 1.73 1.59 1.62 1.75 1.92 1.99 1.94 1.83 1.54 1.47 1.41 1.35 1.30 1.19 1.11 1.06 1.09 1.06 1.04 1.03 0.96 0.96 0.94
0.92 0.83 0.82 0.87 0.81 0.78 0.81 1.03 1.33 1.51 1.69 1.88 1.94 1.83 1.68 1.62 1.67 1.66 1.65 1.70 1.73 1.66 1.63 1.63 1.54 1.45 1.38 1.33 1.33 1.29 1.21 1.17 1.21 1.16 1.15 1.12 1.10 1.14
0.95 0.96 0.87 0.83 0.92 0.82 0.76 0.84 0.92 1.03 1.18 1.45 1.67 1.65 1.75 1.68 1.59 1.52 1.54 1.58 1.58 1.63 1.63 1.62 1.52 1.42 1.33 1.29 1.43 1.34 1.33 1.30 1.32 1.35 1.26 1.27 1.24 1.23
1.01 1.08 1.08 1.01 1.00 1.06 0.99 1.00 0.96 0.89 0.97 0.88 1.07 1.44 1.60 1.67 1.64 1.66 1.76 1.70 1.56 1.58 1.59 1.60 1.53 1.41 1.28 1.19 1.29 1.20 1.14 1.14 1.23 1.41 1.49 1.46 1.47 1.43
0.91 1.03 1.07 1.03 1.09 1.16 1.24 1.29 1.21 1.05 1.18 1.18 1.07 1.17 1.33 1.39 1.51 1.60 1.66 1.60 1.55 1.46 1.34 1.31 1.27 1.31 1.35 1.26 1.21 1.25 1.16 1.12 1.09 1.11 1.22 1.29 1.40 1.54
0.93 1.00 1.17 1.09 1.06 1.03 1.09 1.22 1.20 1.06 0.94 0.98 0.95 0.85 0.79 0.90 1.12 1.27 1.55 1.68 1.62 1.51 1.32 1.25 1.28 1.26 1.29 1.20 1.10 1.13 1.12 1.19 1.19 1.13 1.15 1.22 1.30 1.34
1.05 1.09 1.07 1.19 1.03 0.97 0.97 0.96 1.04 1.04 1.02 1.06 1.13 1.01 0.89 0.84 0.89 0.97 1.18 1.42 1.58 1.49 1.34 1.22 1.26 1.29 1.20 1.07 1.02 1.03 1.03 1.02 1.07 1.14 1.19 1.28 1.34 1.26
0.94 0.94 0.91 1.02 0.88 0.79 0.74 0.79 0.87 0.92 1.00 1.11 1.10 1.04 1.02 0.96 0.94 0.98 1.05 1.17 1.27 1.35 1.36 1.32 1.28 1.25 1.21 1.07 1.00 1.00 1.00 0.98 0.95 1.00 1.04 1.28 1.43 1.46
0.65 0.77 0.81 0.78 0.73 0.66 0.70 0.75 0.77 0.78 0.88 0.97 0.98 0.94 0.93 0.97 0.98 0.99 1.02 1.07 1.07 1.02 1.04 1.11 1.23 1.28 1.27 1.17 1.03 1.01 1.01 0.96 0.89 0.90 0.97 1.04 1.12 1.28
0.59 0.63 0.67 0.64 0.63 0.63 0.67 0.72 0.76 0.79 0.83 0.85 0.86 0.89 0.90 0.96 1.03 1.01 1.02 1.09 1.15 1.09 1.03 1.07 1.16 1.30 1.30 1.21 1.15 1.08 1.05 1.01 0.93 0.90 0.90 0.98 1.07 1.16
0.68 0.63 0.61 0.62 0.62 0.68 0.70 0.70 0.73 0.78 0.78 0.77 0.80 0.82 0.81 0.86 0.90 0.91 0.95 1.01 1.05 1.00 0.99 1.06 1.14 1.22 1.25 1.25 1.26 1.17 1.15 1.15 1.12 1.08 1.04 1.01 1.02 1.08
0.69 0.75 0.78 0.83 0.84 0.83 0.80 0.71 0.66 0.68 0.74 0.80 0.81 0.82 0.82 0.79 0.82 0.86 0.90 0.99 1.02 0.95 0.87 0.91 1.03 1.16 1.18 1.09 1.02 1.02 1.05 1.07 1.14 1.20 1.15 1.10 1.04 1.05
0.66 0.82 0.85 0.83 0.79 0.76 0.71 0.64 0.59 0.57 0.61 0.70 0.81 0.88 0.88 0.87 0.89 0.93 0.94 0.92 0.93 0.93 0.87 0.83 0.88 1.03 1.10 0.96 0.84 0.83 0.87 0.91 1.00 1.06 1.09 1.03 0.98 1.02
0.62 0.73 0.75 0.74 0.67 0.61 0.54 0.49 0.49 0.48 0.48 0.54 0.58 0.67 0.82 0.93 1.00 1.03 1.06 1.09 1.09 1.05 1.00 0.89 0.82 0.85 0.96 0.97 0.85 0.72 0.74 0.81 0.91 0.96 0.98 0.99 0.99 1.05
0.44 0.46 0.47 0.48 0.48 0.45 0.42 0.43 0.46 0.47 0.48 0.49 0.50 0.55 0.65 0.80 0.97 1.08 1.11 1.18 1.16 1.16 1.15 1.06 1.02 1.09 1.02 1.05 1.01 0.80 0.69 0.74 0.83 0.86 0.91 0.99 1.00 0.95
0.37 0.36 0.37 0.38 0.37 0.37 0.38 0.40 0.45 0.48 0.47 0.49 0.54 0.60 0.69 0.75 0.80 0.91 1.07 1.11 1.05 1.02 1.05 1.08 1.11 1.13 1.10 1.15 1.10 0.95 0.83 0.77 0.81 0.88 0.91 0.96 0.97 0.97
0.36 0.38 0.40 0.40 0.39 0.43 0.43 0.43 0.46 0.49 0.49 0.49 0.52 0.58 0.68 0.78 0.85 0.88 0.92 0.96 1.00 1.04 1.05 1.05 1.05 1.06 1.09 1.14 1.21 1.17 1.04 0.93 0.89 0.90 0.91 0.99 0.95 0.85